Regional Weather Roundup
Issued by NWS

Home | Current Version | Previous Version | Graphics & Text | Print | Product List | Glossary On
Versions: 1 2 3 4 5 6 7 8 9 10 11 12 13 14 15 16 17 18 19 20 21 22 23 24 25 26 27 28 29 30 31 32 33 34 35 36 37 38 39 40 41 42 43 44 45 46 47 48 49 50
265
ASUS43 KIND 270559
RWRIN

WEATHER ROUNDUP FOR INDIANA
NATIONAL WEATHER SERVICE INDIANAPOLIS IN
100 AM EST MON FEB 27 2017

NOTE: "FAIR" INDICATES FEW OR NO CLOUDS BELOW 12,000 FEET WITH NO
SIGNIFICANT WEATHER AND/OR OBSTRUCTIONS TO VISIBILITY.

* - STATION DOES NOT REPORT WEATHER SUCH AS PRECIPITATION OR FOG.

+ - STATION NOT QUALITY CONTROLLED BY THE NATIONAL WEATHER SERVICE.
    USE DATA WITH CAUTION...ESPECIALLY DEWPOINT AND RELATIVE
    HUMIDITY OBSERVATIONS.

INZ001>003-010>013-019-020-270700-
NORTHWEST INDIANA

CITY           SKY/WX    TMP DP  RH WIND       PRES   REMARKS
KNOX *+        PTCLDY    32   5  32 SW6       30.11R WCI  26

$$

LMZ046-743>745-270700-
SOUTHERN LAKE MICHIGAN

STATION/POSITION TIME  TEMP    WIND        PRES    WAVE
                       AIR SEA DIR/SP/G            HT
                 (UTC) (F)     (DEG/KT/KT) (MB)    (FT)
BURNS HARBOR     0540   38     200/ 13/ 17 1019.0S
MICHIGAN CITY    0530   39     190/ 18/ 21   N/A

$$

INZ004-005-014>016-021>024-270700-
NORTH CENTRAL INDIANA

CITY           SKY/WX    TMP DP  RH WIND       PRES   REMARKS
GOSHEN         CLEAR     34  22  61 SW9       30.10R WCI  27
6HR MIN TEMP:  33; 6HR MAX TEMP:  42;

SOUTH BEND     CLEAR     33  22  63 SW9       30.10R WCI  25
6HR MIN TEMP:  33; 6HR MAX TEMP:  43;


$$

INZ006>009-017-018-025>027-270700-
NORTHEAST INDIANA

CITY           SKY/WX    TMP DP  RH WIND       PRES   REMARKS
ANGOLA *+      PTCLDY    34  25  69 SW8       30.09R WCI  27
FORT WAYNE     MOCLDY    35  25  66 SW9       30.13R WCI  28
6HR MIN TEMP:  32; 6HR MAX TEMP:  38;

KENDALLVILLE + CLOUDY    36  24  60 SW8       30.10S

$$

INZ028-029-035-036-043>045-051>053-270700-
WEST CENTRAL INDIANA

CITY           SKY/WX    TMP DP  RH WIND       PRES   REMARKS
LAFAYETTE      CLEAR     32  23  69 CALM      30.14R
6HR MIN TEMP:  31; 6HR MAX TEMP:  41;

TERRE HAUTE    LGT RAIN  42  33  70 SW8       30.17R
6HR MIN TEMP:  41; 6HR MAX TEMP:  44; 6HR PCP: TRACE;


$$

INZ030>032-037>040-046>048-054>057-064-065-270700-
CENTRAL INDIANA

CITY           SKY/WX    TMP DP  RH WIND       PRES   REMARKS
GREENWOOD *+   CLOUDY    44  19  38 SW6       30.16S
6HR MIN TEMP:  40; 6HR MAX TEMP:  45;

INDIANAPOLIS   CLOUDY    43  18  36 SW12      30.15R
6HR MIN TEMP:  37; 6HR MAX TEMP:  43;

-EAGLE CREEK   CLOUDY    41  19  41 S5        30.14R
6HR MIN TEMP:  38; 6HR MAX TEMP:  44;

KOKOMO +       CLEAR     35  22  58 S6        30.14R WCI  30
6HR MIN TEMP:  34; 6HR MAX TEMP:  40;

MT COMFORT *+  CLOUDY    39  21  48 S6        30.16R
SHELBYVILLE    CLOUDY    43  19  38 S9        30.16R
6HR MIN TEMP:  38; 6HR MAX TEMP:  45;


$$

INZ033-034-041-042-049-050-058-059-270700-
EAST CENTRAL INDIANA

CITY           SKY/WX    TMP DP  RH WIND       PRES   REMARKS
MUNCIE         MOCLDY    39  20  46 S7        30.14R
6HR MIN TEMP:  38; 6HR MAX TEMP:  44;


$$

INZ060-061-067>069-081>083-085>088-270700-
SOUTHWEST INDIANA

CITY           SKY/WX    TMP DP  RH WIND       PRES   REMARKS
EVANSVILLE     CLOUDY    47  24  40 CALM      30.17S
6HR MIN TEMP:  45; 6HR MAX TEMP:  49;

HUNTINGBURG *+ CLOUDY    42  28  57 CALM      30.17F
6HR MIN TEMP:  41; 6HR MAX TEMP:  46;


$$

INZ062-063-066-070>080-084-089>092-270700-
SOUTH CENTRAL AND SOUTHEAST INDIANA

CITY           SKY/WX    TMP DP  RH WIND       PRES   REMARKS
BLOOMINGTON    CLOUDY    44  28  53 W10       30.16R
6HR MIN TEMP:  42; 6HR MAX TEMP:  45;

MADISON *+     CLOUDY    41  21  45 CALM      30.18F
SEYMOUR +      CLOUDY    41  25  52 CALM      30.17R

$$





USA.gov is the U.S. government's official web portal to all federal, state and local government web resources and services.